Powrót do katalogu

PEGASUS DEB

AktywnyPO
NORAD 39318·DEBRIS·🇺🇸 United States

Wystrzelony May 19, 1994 z Vandenberg Space Force Base

Loading…

Następne Przeloty (najbliższe 24 godziny)

TLE

ŚwieżeSource: Space-Track

Epoka: Sep 12, 2026, 13:36 UTC

1 39318U 94029AFD 26255.56731690  .00000930  00000-0  12968-3 0  9996
2 39318  81.9471 347.7625 0185607  91.9270 330.4571 14.65338060290870

Śledź PEGASUS DEB w czasie rzeczywistym z AllMySat

Download on the App Store